CW1020 Weather Reports


time (UTC)temp
C
wind
direction
speed
KPH
gust
KPH
rain 1hr
cm
rain 24hr
cm
rain mn
cm
humidity
%
barometer
mb
20260903054003 15 162 0.0 3.2 0.00 0.00 0.00 53 1019.0
20260903053503 15 168 0.0 1.6 0.00 0.00 0.00 53 1019.0
20260903053002 15 0 0.0 0.0 0.00 0.00 0.00 52 1019.0
20260903052503 16 168 0.0 1.6 0.00 0.00 0.00 52 1019.0
20260903052003 16 0 0.0 0.0 0.00 0.00 0.00 52 1019.0
20260903050503 16 139 3.2 9.7 0.00 0.00 0.00 53 1019.1
20260903050003 16 150 1.6 11.3 0.00 0.00 0.00 52 1019.1
20260903045503 16 177 1.6 4.8 0.00 0.00 0.00 52 1019.1
20260903045003 16 177 3.2 11.3 0.00 0.00 0.00 52 1019.0
20260903044003 16 154 3.2 14.5 0.00 0.00 0.00 52 1018.9
20260903043004 16 150 4.8 6.4 0.00 0.00 0.00 52 1018.9
20260903042503 16 152 4.8 8.0 0.00 0.00 0.00 52 1018.8
20260903042003 16 155 1.6 9.7 0.00 0.00 0.00 53 1019.0
20260903041004 16 169 4.8 4.8 0.00 0.00 0.00 53 1019.0
20260903040003 16 146 4.8 16.1 0.00 0.00 0.00 53 1018.9
20260903035003 16 164 3.2 6.4 0.00 0.00 0.00 52 1018.8
20260903034503 16 145 4.8 6.4 0.00 0.00 0.00 52 1018.7
20260903034003 16 165 3.2 9.7 0.00 0.00 0.00 49 1018.6
20260903033503 16 155 0.0 8.0 0.00 0.00 0.00 49 1018.5
20260903033003 16 0 0.0 0.0 0.00 0.00 0.00 48 1018.6
20260903032503 16 179 0.0 1.6 0.00 0.00 0.00 47 1018.5
20260903032004 16 0 0.0 0.0 0.00 0.00 0.00 47 1018.5
20260903031503 16 0 0.0 0.0 0.00 0.00 0.00 49 1018.5
20260903031003 17 163 0.0 1.6 0.00 0.00 0.00 48 1018.3
20260903030503 17 0 0.0 0.0 0.00 0.00 0.00 48 1018.2
20260903030003 17 0 3.2 0.0 0.00 0.00 0.00 49 1018.2
20260903025503 17 153 3.2 4.8 0.00 0.00 0.00 50 1018.3
20260903025004 17 139 1.6 9.7 0.00 0.00 0.00 50 1018.3
20260903024503 17 140 0.0 3.2 0.00 0.00 0.00 46 1018.3
20260903024003 17 171 1.6 4.8 0.00 0.00 0.00 42 1018.2
20260903023503 17 182 4.8 1.6 0.00 0.00 0.00 43 1018.4
20260903023003 17 179 4.8 9.7 0.00 0.00 0.00 43 1018.4
20260903022503 17 211 8.0 8.0 0.00 0.00 0.00 43 1018.3
20260903021504 17 211 8.0 16.1 0.00 0.00 0.00 43 1018.4
20260903021003 18 206 8.0 16.1 0.00 0.00 0.00 42 1018.4
20260903020503 18 223 9.7 11.3 0.00 0.00 0.00 41 1018.4
20260903020004 18 222 11.3 14.5 0.00 0.00 0.00 41 1018.4
20260903015504 18 224 11.3 20.9 0.00 0.00 0.00 41 1018.4
20260903015003 18 226 9.7 20.9 0.00 0.00 0.00 39 1018.3
20260903014503 18 224 8.0 16.1 0.00 0.00 0.00 38 1018.4
20260903014003 19 216 9.7 14.5 0.00 0.00 0.00 38 1018.4
20260903013504 19 227 12.9 17.7 0.00 0.00 0.00 37 1018.3
20260903013003 19 221 12.9 20.9 0.00 0.00 0.00 37 1018.3
20260903012503 19 228 12.9 20.9 0.00 0.00 0.00 40 1018.4
20260903012003 19 222 14.5 19.3 0.00 0.00 0.00 41 1018.4
20260903011504 20 232 12.9 25.7 0.00 0.00 0.00 41 1018.3
20260903011004 20 217 12.9 22.5 0.00 0.00 0.00 42 1018.4
20260903010503 20 227 12.9 17.7 0.00 0.00 0.00 42 1018.4
20260903005003 20 234 17.7 20.9 0.00 0.00 0.00 42 1018.6
20260903003503 20 231 17.7 32.2 0.00 0.00 0.00 42 1018.5
20260903003003 20 215 19.3 24.1 0.00 0.00 0.00 42 1018.6
20260903002503 20 229 19.3 29.0 0.00 0.00 0.00 42 1018.6
20260903002003 20 221 17.7 27.4 0.00 0.00 0.00 42 1018.6
20260903001503 20 231 19.3 27.4 0.00 0.00 0.00 40 1018.4
20260903001003 20 230 17.7 32.2 0.00 0.00 0.00 40 1018.4
20260903000004 20 219 19.3 29.0 0.00 0.00 0.00 40 1018.5
20260902235003 20 234 19.3 24.1 0.00 0.00 0.00 38 1018.5
20260902234504 20 230 17.7 25.7 0.00 0.00 0.00 39 1018.5
20260902234003 20 233 16.1 29.0 0.00 0.00 0.00 37 1018.6
20260902233503 20 222 17.7 25.7 0.00 0.00 0.00 38 1018.7
20260902233004 20 233 19.3 27.4 0.00 0.00 0.00 38 1018.6
20260902232503 20 230 19.3 30.6 0.00 0.00 0.00 38 1018.6
20260902231503 20 225 22.5 27.4 0.00 0.00 0.00 38 1018.6
20260902231004 20 228 22.5 33.8 0.00 0.00 0.00 39 1018.7
20260902225503 20 234 22.5 32.2 0.00 0.00 0.00 41 1018.7
20260902225003 20 233 24.1 33.8 0.00 0.00 0.00 40 1018.7
20260902224503 20 233 22.5 35.4 0.00 0.00 0.00 42 1018.8
20260902224003 20 239 22.5 33.8 0.00 0.00 0.00 42 1018.8
20260902222503 20 231 22.5 35.4 0.00 0.00 0.00 42 1018.9
20260902222004 20 237 22.5 37.0 0.00 0.00 0.00 42 1019.0
20260902221503 20 230 20.9 32.2 0.00 0.00 0.00 42 1019.1
20260902220504 20 224 19.3 27.4 0.00 0.00 0.00 42 1018.9
20260902220003 20 230 19.3 27.4 0.00 0.00 0.00 43 1019.0
20260902214003 20 230 17.7 29.0 0.00 0.00 0.00 41 1019.1
20260902213004 20 206 19.3 29.0 0.00 0.00 0.00 43 1019.2
20260902212502 20 230 17.7 35.4 0.00 0.00 0.00 42 1019.1
20260902212002 20 223 17.7 25.7 0.00 0.00 0.00 42 1019.2
20260902211502 20 219 19.3 27.4 0.00 0.00 0.00 41 1019.2
20260902211002 20 223 22.5 30.6 0.00 0.00 0.00 42 1019.0
20260902210502 20 234 20.9 32.2 0.00 0.00 0.00 42 1019.1
20260902210002 21 234 19.3 29.0 0.00 0.00 0.00 42 1019.0
20260902205503 20 231 17.7 30.6 0.00 0.00 0.00 40 1019.2
20260902205002 21 236 12.9 29.0 0.00 0.00 0.00 39 1019.1
20260902204502 20 237 14.5 20.9 0.00 0.00 0.00 40 1019.2
20260902204002 20 241 16.1 24.1 0.00 0.00 0.00 41 1019.3
20260902203502 20 241 14.5 20.9 0.00 0.00 0.00 42 1019.3
20260902202002 19 245 16.1 24.1 0.00 0.00 0.00 44 1019.3
20260902201502 19 243 14.5 24.1 0.00 0.00 0.00 43 1019.3
20260902201002 19 235 14.5 22.5 0.00 0.00 0.00 44 1019.4
20260902200503 19 245 14.5 20.9 0.00 0.00 0.00 44 1019.5
20260902200002 19 239 14.5 29.0 0.00 0.00 0.00 44 1019.4
20260902195502 18 241 16.1 29.0 0.00 0.00 0.00 45 1019.7
20260902195002 18 239 14.5 22.5 0.00 0.00 0.00 45 1019.8
20260902194502 18 241 14.5 24.1 0.00 0.00 0.00 46 1019.9
20260902194002 18 238 16.1 25.7 0.00 0.00 0.00 47 1020.1
20260902193502 18 241 17.7 25.7 0.00 0.00 0.00 47 1019.9
20260902193003 18 235 16.1 27.4 0.00 0.00 0.00 47 1020.1
20260902192502 18 236 17.7 27.4 0.00 0.00 0.00 47 1020.0
20260902192003 18 243 19.3 27.4 0.00 0.00 0.00 48 1020.1
20260902191002 18 240 19.3 30.6 0.00 0.00 0.00 48 1020.1
20260902190502 18 237 19.3 30.6 0.00 0.00 0.00 48 1020.0
20260902190003 18 234 17.7 29.0 0.00 0.00 0.00 48 1020.0
20260902185002 18 235 17.7 24.1 0.00 0.00 0.00 48 1019.9
20260902184503 18 237 17.7 30.6 0.00 0.00 0.00 49 1019.9
20260902184002 17 237 17.7 27.4 0.00 0.00 0.00 49 1020.0
20260902183503 17 237 17.7 29.0 0.00 0.00 0.00 49 1019.9
20260902183002 17 241 17.7 22.5 0.00 0.00 0.00 48 1019.8
20260902182502 17 236 17.7 29.0 0.00 0.00 0.00 48 1019.7
20260902182003 17 238 17.7 29.0 0.00 0.00 0.00 48 1019.8
20260902181502 17 242 19.3 33.8 0.00 0.00 0.00 48 1019.8
20260902181002 17 242 19.3 30.6 0.00 0.00 0.00 48 1019.8
20260902180503 17 244 17.7 27.4 0.00 0.00 0.00 48 1019.8
20260902180005 17 237 16.1 25.7 0.00 0.00 0.00 48 1019.8
20260902175502 17 243 17.7 30.6 0.00 0.00 0.00 48 1020.0
20260902175002 17 245 16.1 24.1 0.00 0.00 0.00 48 1019.9
20260902174503 17 248 14.5 30.6 0.00 0.00 0.00 47 1019.9
20260902173003 17 243 14.5 22.5 0.00 0.00 0.00 45 1019.8
20260902172502 17 241 14.5 20.9 0.00 0.00 0.00 44 1019.8
20260902172003 17 241 12.9 25.7 0.00 0.00 0.00 44 1019.8
20260902171502 17 238 11.3 20.9 0.00 0.00 0.00 44 1019.7
20260902171003 17 244 9.7 20.9 0.00 0.00 0.00 46 1019.8
20260902170502 17 248 8.0 20.9 0.00 0.00 0.00 46 1019.6
20260902170002 17 240 8.0 19.3 0.00 0.00 0.00 47 1019.6
20260902165503 17 241 8.0 16.1 0.00 0.00 0.00 48 1019.7
20260902165002 16 247 8.0 12.9 0.00 0.00 0.00 49 1019.8
20260902164502 16 240 8.0 14.5 0.00 0.00 0.00 50 1019.7
20260902164002 16 243 8.0 16.1 0.00 0.00 0.00 51 1019.7
20260902163503 16 243 8.0 9.7 0.00 0.00 0.00 51 1019.8
20260902163002 15 239 8.0 12.9 0.00 0.00 0.00 52 1019.7
20260902162502 15 238 6.4 16.1 0.00 0.00 0.00 53 1019.8
20260902162002 15 247 4.8 11.3 0.00 0.00 0.00 55 1019.8
20260902161503 15 241 3.2 12.9 0.00 0.00 0.00 56 1019.6
20260902161002 14 244 3.2 6.4 0.00 0.00 0.00 56 1019.7
20260902160502 14 249 3.2 12.9 0.00 0.00 0.00 56 1019.6
20260902160003 13 248 1.6 6.4 0.00 0.00 0.00 58 1019.6
20260902155502 13 246 0.0 3.2 0.00 0.00 0.00 61 1019.8
20260902155002 12 270 0.0 1.6 0.00 0.00 0.00 64 1019.9
20260902154502 11 299 0.0 1.6 0.00 0.00 0.00 67 1019.7
20260902154002 11 300 0.0 1.6 0.00 0.00 0.00 70 1019.8
20260902153502 10 299 0.0 1.6 0.00 0.00 0.00 72 1019.8
20260902153003 10 299 0.0 1.6 0.00 0.00 0.00 73 1019.7
20260902152502 10 299 0.0 1.6 0.00 0.00 0.00 74 1019.9
20260902152003 9 356 0.0 1.6 0.00 0.00 0.00 76 1019.9
20260902151002 8 0 0.0 0.0 0.00 0.00 0.00 78 1020.0
20260902150003 7 0 0.0 0.0 0.00 0.00 0.00 79 1020.0
20260902145502 7 0 0.0 0.0 0.00 0.00 0.00 79 1020.0
20260902144503 7 0 0.0 0.0 0.00 0.00 0.00 79 1020.0
20260902144002 7 0 0.0 0.0 0.00 0.00 0.00 79 1019.9
20260902143503 7 0 0.0 0.0 0.00 0.00 0.00 78 1019.9
20260902143002 7 0 0.0 0.0 0.00 0.00 0.00 78 1019.9
20260902142503 6 0 0.0 0.0 0.00 0.00 0.00 78 1019.8
20260902142003 6 0 0.0 0.0 0.00 0.00 0.00 77 1019.7
20260902141502 6 0 0.0 0.0 0.00 0.00 0.00 77 1019.7
20260902141002 6 0 0.0 0.0 0.00 0.00 0.00 76 1019.6
20260902140503 6 6 0.0 1.6 0.00 0.00 0.00 76 1019.7
20260902140003 6 6 0.0 1.6 0.00 0.00 0.00 75 1019.6
20260902135003 6 0 0.0 0.0 0.00 0.00 0.00 74 1019.5
20260902134502 6 0 0.0 0.0 0.00 0.00 0.00 73 1019.7
20260902134003 7 0 0.0 0.0 0.00 0.00 0.00 73 1019.7
20260902133503 7 0 0.0 0.0 0.00 0.00 0.00 72 1019.6
20260902133003 7 0 0.0 0.0 0.00 0.00 0.00 72 1019.5
20260902132502 7 0 0.0 0.0 0.00 0.00 0.00 72 1019.4
20260902132003 7 0 0.0 0.0 0.00 0.00 0.00 72 1019.4
20260902131502 7 0 0.0 0.0 0.00 0.00 0.00 71 1019.3
20260902130503 7 0 0.0 0.0 0.00 0.00 0.00 72 1019.3
20260902130003 7 0 0.0 0.0 0.00 0.00 0.00 71 1019.2
20260902125503 7 0 0.0 0.0 0.00 0.00 0.00 69 1019.3
20260902125002 7 0 0.0 0.0 0.00 0.00 0.00 69 1019.2
20260902124503 8 0 0.0 0.0 0.00 0.00 0.00 68 1019.1
20260902124002 8 303 0.0 1.6 0.00 0.00 0.00 68 1019.1
20260902123502 8 0 0.0 0.0 0.00 0.00 0.00 68 1019.2
20260902123003 8 0 0.0 0.0 0.00 0.00 0.00 68 1019.2
20260902122502 8 0 0.0 0.0 0.00 0.00 0.00 67 1019.3
20260902122003 8 0 0.0 0.0 0.00 0.00 0.00 68 1019.3
20260902121503 8 303 0.0 1.6 0.00 0.00 0.00 69 1019.2
20260902121002 8 0 0.0 0.0 0.00 0.00 0.00 68 1019.2
20260902120503 8 0 0.0 0.0 0.00 0.00 0.00 69 1019.2
20260902115503 8 0 0.0 0.0 0.00 0.00 0.00 68 1019.2
20260902115003 9 303 0.0 1.6 0.00 0.00 0.00 68 1019.2
20260902114502 9 303 0.0 1.6 0.00 0.00 0.00 67 1019.2
20260902114002 9 304 0.0 1.6 0.00 0.00 0.00 67 1019.2
20260902113503 9 304 0.0 3.2 0.00 0.00 0.00 66 1019.2
20260902113003 9 302 0.0 1.6 0.00 0.00 0.00 66 1019.2
20260902112503 9 292 0.0 1.6 0.00 0.00 0.00 65 1019.3
20260902112003 10 289 0.0 1.6 0.00 0.00 0.00 64 1019.3
20260902111502 10 289 0.0 1.6 0.00 0.00 0.00 63 1019.3
20260902111003 10 283 0.0 3.2 0.00 0.00 0.00 62 1019.3
20260902110503 10 0 0.0 0.0 0.00 0.00 0.00 61 1019.3
20260902110003 11 271 0.0 1.6 0.00 0.00 0.00 60 1019.3
20260902105502 11 0 0.0 0.0 0.00 0.00 0.00 59 1019.3
20260902105003 11 0 0.0 0.0 0.00 0.00 0.00 59 1019.2
20260902104502 11 267 0.0 1.6 0.00 0.00 0.00 58 1019.2
20260902104002 11 0 0.0 0.0 0.00 0.00 0.00 58 1019.2
20260902103503 11 267 0.0 1.6 0.00 0.00 0.00 57 1019.2
20260902103003 12 0 0.0 0.0 0.00 0.00 0.00 56 1019.2
20260902102502 12 267 0.0 1.6 0.00 0.00 0.00 56 1019.2
20260902102002 12 182 1.6 1.6 0.00 0.00 0.00 55 1019.2
20260902101002 12 139 3.2 4.8 0.00 0.00 0.00 58 1019.2
20260902100503 12 145 3.2 8.0 0.00 0.00 0.00 57 1019.2
20260902095003 12 122 4.8 9.7 0.00 0.00 0.00 53 1019.2
20260902093503 12 118 4.8 4.8 0.00 0.00 0.00 53 1019.3
20260902093003 12 128 3.2 11.3 0.00 0.00 0.00 53 1019.4
20260902092503 13 123 3.2 11.3 0.00 0.00 0.00 54 1019.4
20260902092003 13 107 3.2 4.8 0.00 0.00 0.00 55 1019.5
20260902091502 13 101 3.2 9.7 0.00 0.00 0.00 56 1019.4
20260902091003 13 95 1.6 6.4 0.00 0.00 0.00 55 1019.5
20260902090004 13 104 0.0 3.2 0.00 0.00 0.00 56 1019.6
20260902085503 13 184 0.0 1.6 0.00 0.00 0.00 56 1019.7
20260902085003 13 187 0.0 1.6 0.00 0.00 0.00 56 1019.7
20260902084503 13 0 1.6 0.0 0.00 0.00 0.00 56 1019.7
20260902084003 13 177 1.6 4.8 0.00 0.00 0.00 56 1019.7
20260902083503 13 157 1.6 8.0 0.00 0.00 0.00 56 1019.7
20260902083003 13 156 1.6 8.0 0.00 0.00 0.00 55 1019.6
20260902082002 14 170 0.0 1.6 0.00 0.00 0.00 54 1019.6
20260902081503 14 0 0.0 0.0 0.00 0.00 0.00 53 1019.6
20260902081003 14 173 0.0 1.6 0.00 0.00 0.00 53 1019.5
20260902080502 14 173 0.0 1.6 0.00 0.00 0.00 53 1019.6
20260902080003 14 170 1.6 3.2 0.00 0.00 0.00 53 1019.5
20260902075503 14 148 3.2 4.8 0.00 0.00 0.00 53 1019.4
20260902075003 14 138 3.2 8.0 0.00 0.00 0.00 53 1019.4
20260902074503 14 140 1.6 12.9 0.00 0.00 0.00 53 1019.3
20260902074002 14 116 1.6 3.2 0.00 0.00 0.00 54 1019.4
20260902073503 14 101 1.6 4.8 0.00 0.00 0.00 53 1019.3
20260902073003 14 137 0.0 6.4 0.00 0.00 0.00 53 1019.3
20260902072502 15 117 0.0 4.8 0.00 0.00 0.00 52 1019.2
20260902072003 15 143 0.0 3.2 0.00 0.00 0.00 52 1019.2
20260902071503 15 0 0.0 0.0 0.00 0.00 0.00 51 1019.2
20260902071003 15 0 0.0 0.0 0.00 0.00 0.00 51 1019.2
20260902065503 15 148 3.2 8.0 0.00 0.00 0.00 51 1019.2
20260902065004 15 147 1.6 4.8 0.00 0.00 0.00 51 1019.2
20260902064503 15 147 1.6 6.4 0.00 0.00 0.00 50 1019.1
20260902064003 15 144 1.6 3.2 0.00 0.00 0.00 50 1019.2
20260902063503 15 154 1.6 3.2 0.00 0.00 0.00 50 1019.1
20260902062503 15 200 0.0 3.2 0.00 0.00 0.00 50 1019.1
20260902062003 15 0 1.6 0.0 0.00 0.00 0.00 51 1019.1
20260902061503 15 190 1.6 4.8 0.00 0.00 0.00 51 1019.0
20260902061003 15 172 1.6 8.0 0.00 0.00 0.00 52 1019.0
20260902060503 15 181 1.6 1.6 0.00 0.00 0.00 52 1018.9
20260902060004 15 174 1.6 6.4 0.00 0.00 0.00 53 1018.8
20260902055502 15 167 0.0 6.4 0.00 0.00 0.00 52 1018.7
20260902055003 15 229 0.0 1.6 0.00 0.00 0.00 52 1018.7
20260902054503 15 0 0.0 0.0 0.00 0.00 0.00 51 1018.7